Regional Weather Roundup
Issued by NWS Burlington, VT

Home | Current Version | Previous Version | Text Only | Print | Product List | Glossary On
Versions: 1 2 3 4 5 6 7 8 9 10 11 12 13 14 15 16 17 18 19 20 21 22 23 24 25 26 27 28 29 30 31 32 33 34 35 36 37 38 39 40 41 42 43 44 45 46 47 48 49 50
000
ASUS41 KBTV 281830
RWRBTV
VERMONT REGIONAL WEATHER ROUNDUP
NATIONAL WEATHER SERVICE BURLINGTON VT
200 PM EDT TUE JUN 28 2016

NOTE: "FAIR" INDICATES FEW OR NO CLOUDS BELOW 12,000 FEET WITH NO
SIGNIFICANT WEATHER AND/OR OBSTRUCTIONS TO VISIBILITY.

* THESE REPORTS ARE NOT UNDER NWS QUALITY CONTROL AND/OR DO NOT
  REPORT WEATHER SUCH AS PRECIPITATION AND FOG.

VTZ001>019-281900-
_____VERMONT_____


CITY           SKY/WX    TMP DP  RH WIND       PRES   REMARKS
BURLINGTON     FAIR      83  64  52 S20G26    29.84F
6HR MIN TEMP:  73; 6HR MAX TEMP:  83;

MONTPELIER     FAIR      81  63  54 S13       29.92F
6HR MIN TEMP:  70; 6HR MAX TEMP:  82;

MORRISVILLE    PTSUNNY   80  66  62 S7        29.87F
6HR MIN TEMP:  72; 6HR MAX TEMP:  84;

ST. JOHNSBURY*   N/A     82  62  50 MISG      29.86F
6HR MIN TEMP:  71; 6HR MAX TEMP:  82;

LYNDONVILLE*   FAIR      81  64  57 E8        29.90F
6HR MIN TEMP:  66; 6HR MAX TEMP:  81;

MIDDLEBURY*    PTSUNNY   81  66  60 S5        29.86F
6HR MIN TEMP:  71; 6HR MAX TEMP:  82;

RUTLAND*       CLOUDY    81  66  61 W5        29.87F
6HR MIN TEMP:  68; 6HR MAX TEMP:  82;

SPRINGFIELD    FAIR      82  64  54 SE14G21   29.90F
6HR MIN TEMP:  66; 6HR MAX TEMP:  82;

HIGHGATE*      FAIR      77  66  68 CALM      29.85R
6HR MIN TEMP:  72; 6HR MAX TEMP:  81;

NEWPORT*       FAIR      84  62  47 S9        29.86F
6HR MIN TEMP:  70; 6HR MAX TEMP:  85;

BENNINGTON     FAIR      84  63  49 S10       29.90F
6HR MIN TEMP:  72; 6HR MAX TEMP:  84;

SUTTON*          N/A     79 N/A N/A MISG        N/A
GALLUP MILLS*    N/A     82 N/A N/A MISG        N/A
UNION VILLAGE*   N/A     82 N/A N/A MISG        N/A
MT. MANSFIELD*   N/A     73 N/A N/A W9          N/A

_____LAKE CHAMPLAIN_____


CITY           SKY/WX    TMP DP  RH WIND       PRES   REMARKS
BURTON ISLAND*   N/A     73  66  78 S10         N/A
COLCHESTER RF*   N/A     72  66  83 S22         N/A
DIAMOND ISL*     N/A     79  66  65 S22         N/A

$$

NYZ007-026>031-035-052-083-087-281900-
_____NORTHERN NEW YORK_____


CITY           SKY/WX    TMP DP  RH WIND       PRES   REMARKS
PLATTSBURGH    LGT RAIN  72  67  84 E8        29.82F
6HR MIN TEMP:  71; 6HR MAX TEMP:  78; 6HR PCP:  0.26;

SARANAC LAKE   FAIR      80  58  46 SW8       29.86F
6HR MIN TEMP:  68; 6HR MAX TEMP:  82;

MASSENA        LGT RAIN  75  66  73 N3        29.85F
6HR MIN TEMP:  73; 6HR MAX TEMP:  80; 6HR PCP:  0.04;

OGDENSBURG*    MOSUNNY   79  63  57 N9        29.84F
STARK FALLS*     N/A     97 N/A N/A NW3         N/A
WATERTOWN      FAIR      76  63  64 SW13      29.88F
6HR MIN TEMP:  72; 6HR MAX TEMP:  77;

FT DRUM        FAIR      77  62  59 W12G18    29.87F
6HR MIN TEMP:  72; 6HR MAX TEMP:  79;

ALBANY         PTSUNNY   82  67  60 S16G22    29.88F
6HR MIN TEMP:  71; 6HR MAX TEMP:  83;

GLENS FALLS    PTSUNNY   81  67  62 S8        29.87F
6HR MIN TEMP:  70; 6HR MAX TEMP:  81;


$$
NHZ002-005-011-281900-
_____NEW HAMPSHIRE_____


CITY           SKY/WX    TMP DP  RH WIND       PRES   REMARKS
LEBANON        FAIR      83  63  50 S9        29.89F
6HR MIN TEMP:  72; 6HR MAX TEMP:  84;

KEENE          CLOUDY    77  64  65 S8G16     29.93F
6HR MIN TEMP:  70; 6HR MAX TEMP:  79;

MT WASHINGTON  PTSUNNY   57  52  82 S10G23      N/A  FOG
6HR MIN TEMP:  53; 6HR MAX TEMP:  62;

PLYMOUTH       FAIR      80  64  56 E5        29.90F
6HR MIN TEMP:  68; 6HR MAX TEMP:  81;

WHITEFIELD     FAIR      86  61  42 SW9       29.88F
6HR MIN TEMP:  69; 6HR MAX TEMP:  87;


$$

_____REGIONAL QUEBEC LOCATIONS_____


CITY           SKY/WX    TMP DP  RH WIND       PRES   REMARKS
MONTREAL       CLOUDY    81  57  44 CALM      29.83F
QUEBEC CITY    PTSUNNY   77  66  69 SW9       29.85F
SHERBROOKE     PTSUNNY   81  66  61 W9        29.86F

_____REGIONAL ONTARIO LOCATIONS_____


CITY           SKY/WX    TMP DP  RH WIND       PRES   REMARKS
OTTAWA         PTSUNNY   77  61  57 NW12      29.88S

______KEY______
VSB  - VISIBILITY IN MILES
WCI  - WIND CHILL INDEX
HX   - HEAT INDEX
$$
NNNN



USA.gov is the U.S. government's official web portal to all federal, state and local government web resources and services.